TimeCDT,TemperatureF,Dew PointF,Humidity,Sea Level PressureIn,VisibilityMPH,Wind Direction,Wind SpeedMPH,Gust SpeedMPH,PrecipitationIn,Events,Conditions,WindDirDegrees,DateUTC
12:15 AM,35.6,35.6,100,29.76,2.0,Calm,Calm,-,N/A,,Overcast,0,2013-03-10 06:15:00
12:35 AM,35.6,35.6,100,29.76,2.0,SSW,3.5,-,N/A,,Overcast,200,2013-03-10 06:35:00
12:55 AM,35.6,35.6,100,29.76,2.0,Calm,Calm,-,N/A,,Light Drizzle,0,2013-03-10 06:55:00
1:15 AM,35.6,35.6,100,29.76,1.8,Calm,Calm,-,N/A,,Overcast,0,2013-03-10 07:15:00
1:35 AM,35.6,35.6,100,29.75,1.8,Calm,Calm,-,N/A,,Overcast,0,2013-03-10 07:35:00
1:55 AM,35.6,35.6,100,29.75,1.8,Calm,Calm,-,N/A,,Overcast,0,2013-03-10 07:55:00
3:15 AM,35.6,35.6,100,29.75,1.5,Calm,Calm,-,N/A,,Overcast,0,2013-03-10 08:15:00
3:35 AM,35.6,35.6,100,29.75,0.5,Calm,Calm,-,N/A,Fog,Fog,0,2013-03-10 08:35:00
3:55 AM,35.6,35.6,100,29.75,0.8,Calm,Calm,-,N/A,,Overcast,0,2013-03-10 08:55:00
4:15 AM,35.6,35.6,100,29.75,0.5,Calm,Calm,-,N/A,Fog,Fog,0,2013-03-10 09:15:00
4:35 AM,35.6,35.6,100,29.75,0.5,Calm,Calm,-,N/A,Fog,Fog,0,2013-03-10 09:35:00
4:55 AM,35.6,35.6,100,29.75,0.5,Calm,Calm,-,N/A,Fog,Fog,0,2013-03-10 09:55:00
5:15 AM,35.6,35.6,100,29.77,0.5,Calm,Calm,-,N/A,Fog,Fog,0,2013-03-10 10:15:00
5:35 AM,35.6,35.6,100,29.78,1.0,Calm,Calm,-,N/A,,Overcast,0,2013-03-10 10:35:00
5:55 AM,35.6,35.6,100,29.77,4.0,NNW,8.1,-,N/A,,Overcast,340,2013-03-10 10:55:00
6:15 AM,35.6,35.6,100,29.77,7.0,North,5.8,-,N/A,,Overcast,350,2013-03-10 11:15:00
7:35 AM,35.6,33.8,93,29.81,10.0,North,9.2,-,N/A,,Overcast,360,2013-03-10 12:35:00
7:55 AM,33.8,33.8,100,29.82,10.0,North,6.9,16.1,N/A,,Overcast,350,2013-03-10 12:55:00
8:15 AM,33.8,33.8,100,29.82,10.0,North,8.1,-,N/A,,Overcast,360,2013-03-10 13:15:00
8:35 AM,33.8,33.8,100,29.82,10.0,North,9.2,-,N/A,,Overcast,10,2013-03-10 13:35:00
8:55 AM,33.8,33.8,100,29.84,10.0,North,6.9,-,N/A,,Overcast,10,2013-03-10 13:55:00
9:15 AM,33.8,33.8,100,29.85,10.0,North,6.9,-,N/A,,Overcast,350,2013-03-10 14:15:00
9:35 AM,33.8,33.8,100,29.87,10.0,North,9.2,17.3,N/A,,Overcast,350,2013-03-10 14:35:00
9:55 AM,33.8,33.8,100,29.86,10.0,North,8.1,-,N/A,,Overcast,10,2013-03-10 14:55:00
10:15 AM,35.6,33.8,93,29.89,10.0,North,10.4,-,N/A,,Overcast,360,2013-03-10 15:15:00
10:35 AM,35.6,33.8,93,29.88,10.0,North,9.2,-,N/A,,Overcast,360,2013-03-10 15:35:00
10:55 AM,35.6,32.0,87,29.88,10.0,North,11.5,17.3,N/A,,Overcast,360,2013-03-10 15:55:00
11:15 AM,35.6,32.0,87,29.90,10.0,North,8.1,18.4,N/A,,Overcast,10,2013-03-10 16:15:00
11:35 AM,35.6,32.0,87,29.90,10.0,NNE,13.8,-,N/A,,Overcast,20,2013-03-10 16:35:00
11:55 AM,35.6,32.0,87,29.91,10.0,North,8.1,-,N/A,,Overcast,10,2013-03-10 16:55:00
12:15 PM,35.6,32.0,87,29.92,10.0,North,9.2,-,N/A,,Overcast,360,2013-03-10 17:15:00
12:35 PM,35.6,32.0,87,29.92,10.0,North,10.4,18.4,N/A,,Overcast,360,2013-03-10 17:35:00
12:55 PM,35.6,32.0,87,29.90,10.0,NNE,11.5,-,N/A,,Overcast,30,2013-03-10 17:55:00
1:15 PM,35.6,32.0,87,29.90,10.0,NNE,12.7,-,N/A,,Overcast,20,2013-03-10 18:15:00
1:35 PM,35.6,32.0,87,29.90,10.0,North,8.1,-,N/A,,Overcast,10,2013-03-10 18:35:00
1:55 PM,35.6,32.0,87,29.91,10.0,North,9.2,19.6,N/A,,Overcast,360,2013-03-10 18:55:00
2:15 PM,35.6,32.0,87,29.89,10.0,North,13.8,17.3,N/A,,Overcast,360,2013-03-10 19:15:00
2:35 PM,35.6,30.2,81,29.87,10.0,NNE,15.0,20.7,N/A,,Overcast,20,2013-03-10 19:35:00
2:55 PM,35.6,30.2,81,29.86,10.0,North,16.1,23.0,N/A,,Overcast,10,2013-03-10 19:55:00
3:15 PM,35.6,30.2,81,29.85,10.0,NNE,17.3,25.3,N/A,,Overcast,20,2013-03-10 20:15:00
3:35 PM,35.6,30.2,81,29.86,10.0,NNE,16.1,25.3,N/A,,Overcast,20,2013-03-10 20:35:00
3:55 PM,35.6,30.2,81,29.87,10.0,NNE,19.6,25.3,N/A,,Overcast,30,2013-03-10 20:55:00
4:15 PM,33.8,30.2,87,29.89,10.0,North,13.8,20.7,N/A,,Overcast,10,2013-03-10 21:15:00
4:35 PM,33.8,30.2,87,29.89,10.0,NNE,13.8,18.4,N/A,,Overcast,20,2013-03-10 21:35:00
4:55 PM,33.8,30.2,87,29.87,10.0,NNE,15.0,18.4,N/A,,Overcast,30,2013-03-10 21:55:00
5:15 PM,33.8,30.2,87,29.87,10.0,NNE,11.5,19.6,N/A,,Overcast,20,2013-03-10 22:15:00
5:35 PM,33.8,28.4,81,29.86,10.0,NNE,18.4,23.0,N/A,,Overcast,20,2013-03-10 22:35:00
5:55 PM,33.8,28.4,81,29.84,10.0,NNE,21.9,25.3,N/A,,Overcast,30,2013-03-10 22:55:00
6:15 PM,33.8,28.4,81,29.86,10.0,NNE,17.3,23.0,N/A,,Overcast,20,2013-03-10 23:15:00
6:35 PM,33.8,28.4,81,29.87,10.0,NE,15.0,20.7,N/A,,Overcast,40,2013-03-10 23:35:00
6:55 PM,33.8,28.4,81,29.87,10.0,NNE,16.1,23.0,N/A,,Overcast,30,2013-03-10 23:55:00
7:15 PM,33.8,28.4,81,29.87,10.0,NE,18.4,31.1,N/A,,Overcast,40,2013-03-11 00:15:00
7:35 PM,33.8,26.6,75,29.86,10.0,NNE,24.2,29.9,N/A,,Overcast,30,2013-03-11 00:35:00
7:55 PM,33.8,26.6,75,29.86,10.0,NE,17.3,26.5,N/A,,Overcast,40,2013-03-11 00:55:00
8:15 PM,33.8,28.4,81,29.86,10.0,NE,18.4,26.5,N/A,,Overcast,40,2013-03-11 01:15:00
8:35 PM,32.0,28.4,87,29.86,10.0,NE,16.1,26.5,N/A,,Overcast,40,2013-03-11 01:35:00
9:15 PM,32.0,26.6,80,29.86,10.0,NE,13.8,26.5,N/A,,Overcast,50,2013-03-11 02:15:00
9:35 PM,32.0,26.6,80,29.86,5.0,NE,26.5,34.5,N/A,Snow,Light Snow,40,2013-03-11 02:35:00
9:55 PM,30.2,28.4,93,29.85,1.0,NNE,21.9,-,N/A,Snow,Snow,30,2013-03-11 02:55:00
10:15 PM,30.2,28.4,93,29.85,1.0,NNE,16.1,23.0,N/A,Snow,Snow,30,2013-03-11 03:15:00
10:35 PM,30.2,28.4,93,29.84,1.0,NNE,18.4,-,N/A,Snow,Snow,30,2013-03-11 03:35:00
10:55 PM,30.2,28.4,93,29.83,0.8,NNE,17.3,25.3,N/A,Snow,Snow,30,2013-03-11 03:55:00
11:15 PM,30.2,28.4,93,29.82,0.8,NNE,16.1,-,N/A,Snow,Snow,20,2013-03-11 04:15:00
11:35 PM,28.4,28.4,100,29.81,0.8,NNE,15.0,23.0,N/A,Snow,Snow,30,2013-03-11 04:35:00
12:35 AM,28.4,28.4,100,29.78,0.8,NNE,13.8,19.6,N/A,Snow,Snow,20,2013-03-11 05:35:00
12:55 AM,28.4,28.4,100,29.78,0.8,NNE,12.7,-,N/A,Snow,Snow,20,2013-03-11 05:55:00